ECMWFNIL_700_spd_000.txt.gz
Wind_Speed
14 13 12 11 7 3 1 2 2 2 3 4 6 8 9 9 10 10 10 11 10 10 10 9 8 8 7 7 6 6 6 5 5 5 5 5 4 4 5 5 5 6
15 14 13 12 10 6 4 3 3 3 2 3 4 5 7 7 8 9 10 11 11 11 11 10 10 9 9 9 8 8 8 8 8 7 7 6 6 6 5 5 5 5
17 15 14 13 12 9 7 6 5 4 3 2 2 2 3 4 5 6 7 9 9 10 10 10 10 10 10 10 10 11 11 11 11 11 10 10 9 8 8 7 7 7
19 17 16 15 14 13 12 11 9 8 7 6 6 5 3 2 1 1 3 5 6 7 8 8 9 9 10 10 10 11 11 12 12 12 12 12 12 12 12 12 11 11
20 20 20 18 17 17 16 15 13 11 11 11 12 11 8 6 5 4 3 3 3 4 5 6 7 8 9 9 10 10 10 11 11 11 12 12 13 13 13 13 14 14
24 24 24 23 22 22 21 18 14 12 14 15 15 15 14 12 11 9 8 6 5 4 4 5 6 7 8 9 10 10 10 10 10 10 10 11 12 12 13 13 13 13
26 27 27 27 25 25 24 21 17 15 16 16 15 16 18 17 15 14 13 11 9 8 7 7 7 8 9 10 11 11 12 12 12 13 12 12 12 13 13 14 14 13
28 29 30 29 28 26 24 21 18 18 18 16 15 17 20 20 19 18 18 17 15 13 12 11 10 10 10 11 13 13 14 15 15 16 16 16 15 15 15 16 17 17
31 31 30 31 31 29 26 22 19 20 22 20 18 20 21 21 21 20 20 20 17 16 15 14 12 12 12 13 14 15 16 17 18 19 20 20 20 19 17 17 17 19
30 30 30 31 32 31 30 27 23 23 26 25 24 22 22 23 24 21 21 22 20 19 19 18 16 15 14 14 15 16 17 17 19 21 22 22 22 22 21 20 19 19
30 30 29 29 30 32 31 30 28 27 28 29 29 27 25 27 27 24 22 22 22 21 21 20 19 19 16 15 15 17 18 19 20 21 22 23 23 23 23 24 23 22
33 33 31 28 28 29 30 29 29 29 30 32 36 38 35 32 31 29 26 26 24 21 18 19 21 22 21 18 17 18 19 21 22 23 23 25 25 24 24 25 25 25
35 35 33 30 26 26 26 28 29 30 30 32 37 40 36 31 30 29 28 26 23 19 18 20 23 24 24 24 22 21 20 21 23 25 26 27 27 26 27 27 26 26
36 37 36 34 31 30 30 31 33 35 36 35 34 31 28 26 27 28 27 25 22 19 20 23 25 26 27 28 29 27 24 22 23 26 28 29 29 28 29 30 29 28
37 38 36 35 34 34 34 35 37 39 41 40 35 31 28 27 28 29 28 26 23 20 21 24 25 27 29 30 30 29 28 26 25 27 29 31 32 32 32 32 32 31
34 35 33 31 31 32 33 33 33 32 33 32 30 28 27 26 27 28 27 26 24 23 24 25 27 28 29 29 29 31 32 29 27 28 29 32 34 35 36 36 35 35
26 26 25 27 27 26 26 27 27 27 26 26 26 25 24 25 26 27 27 27 27 27 27 28 30 30 29 27 28 31 33 32 31 30 29 30 33 36 38 40 39 39
27 27 28 29 28 25 25 26 26 27 26 26 27 27 27 27 27 29 30 30 31 30 31 31 32 32 29 26 28 30 32 33 34 33 31 31 34 37 39 40 40 40
32 33 33 33 31 29 28 27 26 25 25 25 27 28 29 29 29 30 32 33 34 34 35 34 33 31 28 27 28 29 31 33 34 33 32 32 34 36 37 36 37 38
31 31 32 32 32 31 29 28 26 25 25 26 27 28 30 31 31 31 31 31 33 35 36 35 32 29 27 28 29 30 31 33 32 33 34 35 35 36 35 35 35 37
26 26 26 25 26 26 26 26 27 28 29 29 30 30 30 31 32 32 31 30 30 32 35 34 31 28 27 28 30 31 30 30 31 33 35 36 36 35 34 35 36 38
24 24 23 23 24 24 25 26 26 27 28 29 30 30 30 29 30 30 30 30 30 32 33 32 30 28 27 28 30 31 30 30 32 33 34 35 35 35 35 36 37 39
26 26 26 27 27 27 27 27 27 27 27 28 29 29 28 28 28 28 29 30 31 31 31 30 30 28 28 28 29 29 29 31 33 34 35 35 36 36 37 38 39 40
28 28 29 29 29 29 29 29 28 28 27 27 27 26 26 26 26 27 28 29 28 27 28 29 29 29 29 29 29 28 29 31 34 35 35 36 37 39 40 40 39 40
29 30 30 31 31 30 30 29 28 28 27 27 27 26 26 26 26 28 29 29 26 25 26 27 27 28 29 30 30 30 30 31 33 35 35 36 38 40 41 39 39 40
29 30 32 33 34 32 31 29 28 28 28 28 28 28 28 28 29 31 32 30 28 27 28 28 28 27 28 29 30 31 31 31 33 34 34 34 36 38 39 39 41 43

ECMWFNIL_700_spd_003.txt.gz
Wind_Speed
13 13 13 10 7 6 6 4 2 7 9 9 10 11 11 13 14 14 14 14 15 15 15 15 15 15 14 14 14 13 12 12 11 10 9 8 8 7 6 5 4 3
13 13 12 10 7 4 4 4 1 5 8 8 8 9 10 11 13 13 14 14 15 15 15 16 16 16 15 15 14 14 14 14 14 13 13 12 11 11 10 9 8 8
13 13 12 10 9 6 4 5 5 2 5 6 5 6 6 8 9 10 11 12 12 13 13 13 14 14 14 13 13 13 13 13 13 13 13 13 12 12 12 11 11 11
14 13 12 12 10 9 8 8 8 7 5 5 4 3 3 4 5 5 6 6 7 8 9 9 10 10 10 11 11 11 11 11 11 11 11 11 11 11 12 12 12 12
17 15 15 15 14 12 12 11 11 11 10 8 7 5 5 3 2 1 1 2 3 4 4 5 5 6 7 7 8 8 9 9 9 9 9 9 10 11 11 12 12 12
20 20 19 19 17 16 16 14 14 14 13 13 11 9 8 7 7 6 5 4 3 3 3 3 4 5 5 5 5 6 7 8 8 9 9 10 10 10 11 12 12 12
21 22 22 20 19 18 18 17 16 16 16 16 15 14 12 10 10 10 10 9 9 8 7 7 6 6 8 8 8 8 8 8 9 10 10 11 12 12 12 13 13 13
21 22 22 20 19 19 19 18 17 17 19 20 19 19 17 14 13 13 13 13 14 13 12 11 9 9 9 9 10 11 11 11 12 12 12 11 12 14 14 15 15 14
22 23 22 21 20 20 19 20 20 19 21 23 23 22 20 17 16 16 16 16 16 16 16 15 13 11 10 10 10 11 13 14 14 15 15 14 14 14 15 15 16 16
22 22 22 22 22 22 22 23 24 23 23 25 26 25 23 21 20 20 20 20 19 19 19 18 17 15 14 13 13 12 12 13 14 15 17 17 16 16 16 15 16 18
22 24 25 26 26 25 25 25 25 24 24 24 24 25 25 24 23 23 23 24 26 27 27 24 22 20 19 16 14 13 11 10 11 13 16 18 18 18 18 18 18 19
22 25 28 29 29 27 26 26 25 24 23 22 22 22 23 23 23 23 24 27 30 35 35 32 28 25 23 19 15 14 12 11 12 13 14 16 17 19 20 21 20 20
25 28 30 31 30 29 27 25 24 24 23 22 22 21 21 22 22 23 25 29 32 35 35 30 25 24 24 21 17 14 13 14 15 14 14 15 16 19 21 21 22 21
31 31 32 31 28 26 26 25 23 24 25 24 23 22 22 23 25 26 28 30 31 32 32 28 23 20 21 22 21 18 16 16 17 17 16 16 17 19 21 22 23 23
28 28 29 27 22 22 26 30 28 27 27 24 21 21 22 24 26 27 27 29 29 28 27 25 21 18 18 21 22 22 21 21 21 21 21 21 21 22 23 23 24 25
21 22 24 25 21 19 24 28 27 25 24 22 21 22 23 23 23 22 22 23 24 22 20 18 18 17 17 18 20 21 22 24 25 25 26 27 27 26 25 25 25 26
18 19 20 21 20 18 19 21 20 20 21 22 23 23 23 22 21 20 21 22 21 20 20 19 20 20 19 20 21 23 25 26 25 26 28 30 29 28 27 28 28 27
18 19 20 21 20 19 20 21 20 19 19 20 21 22 22 22 22 23 23 23 23 23 23 23 22 22 23 23 24 26 27 28 27 27 29 29 29 29 30 31 31 30
19 21 22 22 21 21 22 22 20 19 20 20 20 21 22 23 23 24 25 25 27 27 27 26 25 25 24 25 26 27 28 29 29 29 29 29 29 30 32 32 32 33
23 24 24 24 24 23 22 21 20 20 20 20 21 22 23 24 25 26 26 27 28 28 28 27 26 26 25 25 26 27 28 29 31 31 30 30 31 32 32 32 33 34
25 25 25 24 23 21 19 18 18 18 19 19 20 20 21 22 23 24 25 25 25 26 27 27 27 27 26 26 26 27 27 28 30 30 30 31 32 34 33 33 33 34
23 23 22 21 19 17 16 17 17 18 19 19 20 20 20 20 21 22 23 24 24 24 25 26 26 27 27 27 27 27 27 27 28 29 30 31 33 35 34 33 34 35
22 21 21 20 19 18 17 17 18 18 19 20 21 21 22 22 22 23 24 25 24 23 24 25 27 28 28 28 28 28 28 28 28 29 29 31 33 34 34 35 36 36
23 22 23 23 22 21 21 21 20 19 19 20 21 21 22 22 23 25 25 25 24 23 23 24 26 26 26 25 25 26 26 27 28 28 28 30 33 34 35 38 38 38
24 25 25 24 24 25 25 24 23 21 20 20 21 22 22 23 25 27 27 26 25 24 24 25 25 26 25 24 24 24 25 25 27 28 29 30 33 35 37 38 39 39
26 25 25 25 26 27 28 27 26 23 22 21 22 23 24 25 28 29 29 28 27 26 27 27 26 27 27 26 27 27 27 27 27 28 30 32 34 36 38 38 39 38

ECMWFNIL_700_spd_006.txt.gz
Wind_Speed
11 12 9 3 1 3 3 2 2 2 2 5 8 11 14 16 18 18 18 18 18 18 17 17 17 17 17 16 15 15 15 14 14 14 13 12 12 11 9 9 8 7
13 14 11 5 3 3 2 1 2 2 2 4 7 10 13 16 17 18 18 18 18 18 18 18 18 18 18 18 17 17 17 16 16 16 15 15 14 13 13 12 11 10
17 17 13 8 6 5 5 4 3 3 3 4 5 7 10 13 14 15 15 15 16 16 16 16 15 15 15 15 15 15 15 14 14 14 14 13 13 12 12 12 11 11
20 18 15 11 10 9 8 7 6 5 5 5 5 5 7 9 10 11 11 11 11 12 12 11 11 11 10 10 10 10 10 10 10 10 10 10 9 9 10 10 10 10
21 20 18 15 14 13 12 11 9 8 8 6 6 6 6 6 6 7 7 7 8 8 7 7 7 6 6 5 5 5 5 5 5 5 5 6 6 7 8 8 9 9
22 22 22 20 19 17 15 14 12 11 10 9 8 8 7 7 6 6 5 4 4 4 4 3 3 2 2 2 2 2 2 2 3 3 3 4 4 5 6 7 8 8
25 25 24 23 23 21 19 17 16 15 13 12 11 9 9 9 8 9 9 8 6 5 4 3 3 3 4 5 6 6 6 5 5 5 5 5 6 6 6 6 7 7
28 28 26 25 26 24 23 22 20 19 16 15 14 12 12 11 10 10 10 10 9 9 9 9 9 9 10 10 11 10 9 8 8 8 8 8 8 8 9 8 8 8
32 31 28 27 28 28 26 25 24 22 19 18 17 15 14 14 13 12 10 10 10 10 11 11 11 11 12 14 15 13 12 12 12 12 11 10 9 10 11 11 11 10
33 32 29 28 29 30 29 27 27 25 22 20 18 17 16 15 15 14 13 13 13 12 12 12 13 13 14 15 16 17 17 17 16 16 14 12 11 11 12 13 13 12
33 32 30 29 28 30 31 31 29 27 24 20 18 17 17 16 16 17 16 16 17 16 16 16 17 18 19 19 20 22 24 23 20 18 16 14 12 13 13 14 15 15
36 33 28 25 26 28 30 33 33 31 27 23 19 17 17 17 17 17 17 17 17 18 18 19 19 21 23 25 25 25 29 28 22 18 17 15 14 14 15 16 17 17
36 31 25 26 27 27 28 31 33 31 27 23 19 18 19 21 21 18 15 15 15 16 18 19 20 22 23 24 23 22 24 29 27 22 18 16 14 14 16 17 17 18
34 28 26 28 29 26 27 30 31 29 26 22 21 23 25 26 25 20 16 15 14 15 16 17 18 20 20 19 18 16 17 21 26 26 22 17 15 15 16 18 18 18
30 27 29 31 29 24 24 25 23 23 23 22 22 24 25 26 22 18 18 18 15 13 13 14 14 14 14 14 14 14 14 15 19 25 27 24 21 20 20 21 21 20
22 22 24 24 19 15 15 17 16 16 19 20 20 22 24 24 20 17 19 19 15 13 13 13 13 13 13 14 14 14 15 15 16 20 25 27 27 27 28 27 24 22
16 16 15 11 9 9 10 11 11 12 15 16 16 17 18 18 17 17 19 19 18 17 17 17 17 16 16 16 16 16 17 18 19 20 22 24 26 28 29 29 27 25
14 14 11 8 8 10 10 10 11 12 13 14 15 16 14 13 14 15 16 16 17 18 18 19 19 19 19 19 20 21 21 23 24 24 25 25 26 27 28 29 29 28
15 15 13 11 11 11 11 12 13 13 14 15 16 16 14 14 15 16 16 17 18 18 20 21 21 22 23 24 25 25 25 26 27 27 27 27 27 28 28 28 30 30
17 16 14 13 13 13 14 15 16 17 17 17 17 17 17 17 18 19 20 21 22 22 23 24 24 25 26 26 26 27 27 27 27 27 27 27 28 28 28 29 30 30
19 18 17 17 16 17 18 18 19 20 19 18 17 17 18 18 18 19 20 20 20 21 22 22 22 23 24 24 24 25 26 26 26 26 26 27 28 28 29 30 30 30
20 20 20 20 20 20 20 19 18 18 17 17 16 16 16 16 17 18 18 18 19 19 20 21 21 22 23 24 24 24 26 26 27 26 27 27 28 29 30 30 30 30
21 21 21 21 21 20 19 18 17 17 17 17 17 17 17 17 18 19 19 19 20 21 22 22 23 23 24 24 24 25 25 26 26 26 26 26 27 28 30 30 31 31
23 23 23 23 22 21 20 20 19 19 19 19 19 19 20 20 21 21 21 21 22 23 23 24 24 24 25 25 25 25 26 26 26 25 25 24 25 26 27 29 30 31
25 25 25 25 24 23 23 22 22 21 20 20 21 22 22 23 23 22 22 22 22 23 24 24 25 25 26 26 26 26 27 27 27 27 27 27 27 27 28 29 30 31
25 25 25 25 25 25 25 25 24 23 22 22 23 24 24 25 25 25 24 23 23 23 24 24 25 26 26 26 27 27 28 29 29 29 30 30 30 30 30 31 32 33

ECMWFNIL_700_spd_009.txt.gz
Wind_Speed
15 10 10 11 9 6 6 5 4 4 3 3 5 6 6 7 8 9 9 9 10 10 10 11 12 12 12 12 12 11 11 11 10 10 10 9 9 8 8 8 7 6
20 14 12 13 11 8 6 3 2 2 1 3 6 8 9 9 9 10 11 12 12 13 13 14 15 15 16 15 15 15 15 14 14 14 14 13 13 12 12 11 11 10
24 21 15 14 11 9 7 4 4 3 2 4 6 9 9 10 9 10 11 12 13 13 13 13 14 14 14 14 14 14 14 14 13 13 13 12 12 11 11 10 10 9
27 25 16 14 13 11 10 8 6 5 4 5 6 8 9 9 9 8 9 9 10 10 11 11 11 11 11 10 10 10 10 10 10 9 9 9 8 8 8 7 7 7
22 20 17 16 16 14 13 10 8 7 6 6 7 8 8 8 8 7 6 6 6 6 7 7 7 7 7 6 6 5 4 4 4 4 4 4 4 4 4 4 4 4
18 18 19 20 18 17 16 13 11 10 9 8 8 8 9 8 7 6 5 4 4 4 4 4 4 3 4 4 4 4 4 3 2 1 1 0 0 0 1 1 1 1
20 20 21 22 21 19 17 15 14 13 11 10 10 9 9 9 8 7 6 5 4 4 3 2 2 3 4 6 7 8 8 8 7 6 6 5 4 4 3 3 4 4
24 22 22 24 23 21 20 18 17 16 15 14 13 11 10 10 9 8 8 8 7 7 6 6 7 7 7 7 8 10 11 11 11 11 11 11 10 9 8 8 7 7
25 23 24 27 26 24 23 23 21 20 19 17 15 14 13 13 12 11 10 9 8 7 6 7 7 7 6 6 7 9 10 12 14 15 17 17 17 15 14 13 12 11
27 26 26 28 28 27 26 27 26 26 24 21 20 18 17 16 15 14 13 11 10 8 7 6 6 6 6 7 9 9 11 13 15 17 19 21 21 21 19 18 16 15
27 27 27 28 29 29 29 29 30 31 29 26 25 23 22 20 19 18 17 15 12 11 9 8 7 8 9 11 12 12 14 15 17 19 20 20 21 22 21 20 19 18
25 26 28 30 31 30 29 31 33 34 33 30 28 27 25 25 24 22 21 19 16 15 13 11 11 11 12 12 13 14 15 16 18 21 22 20 19 19 20 20 20 20
24 27 30 32 31 30 31 33 34 35 33 32 32 30 28 27 26 25 24 23 20 18 17 14 12 11 11 12 14 14 15 17 18 19 21 21 20 19 20 21 21 22
23 26 32 34 32 31 32 33 34 35 35 35 35 33 31 31 28 25 24 24 24 22 19 15 13 11 12 13 14 15 16 17 17 17 18 20 22 23 23 21 20 20
24 27 32 36 35 31 29 29 31 34 35 34 33 33 34 33 27 22 22 24 27 24 18 15 13 12 15 17 16 16 16 15 15 16 17 18 20 24 27 26 22 20
22 25 29 33 34 28 23 25 27 28 27 24 21 22 25 24 21 20 19 19 19 16 12 11 11 12 15 16 16 16 15 14 14 15 16 17 17 20 25 29 29 27
15 18 20 23 26 21 16 17 20 20 19 16 14 14 14 14 14 14 12 11 11 11 11 11 11 12 14 14 15 16 16 17 17 17 18 19 19 19 21 25 29 32
13 14 14 14 16 14 12 12 13 14 13 11 12 13 13 12 12 11 11 11 13 13 13 12 12 12 14 15 17 18 19 20 20 21 22 23 24 24 24 25 28 31
16 15 13 13 13 14 13 14 14 14 13 12 13 15 14 13 13 12 13 15 15 15 15 14 13 14 16 18 19 20 22 23 24 25 26 27 28 28 29 29 30 31
17 16 15 15 16 15 15 16 15 14 14 15 16 16 15 13 13 14 16 16 16 16 15 15 15 17 18 20 21 23 24 25 26 26 26 27 27 27 28 29 30 30
18 17 17 18 18 18 18 18 17 16 16 16 16 16 15 15 16 17 18 17 17 17 16 17 18 20 22 23 24 25 25 25 25 25 25 25 25 26 26 27 28 28
20 19 19 19 19 20 20 19 18 18 18 18 17 17 18 19 20 20 20 20 20 20 20 20 21 22 23 24 25 25 25 26 26 26 26 26 25 26 26 26 26 27
22 21 20 20 21 21 20 20 20 20 20 20 21 22 23 23 23 23 23 23 23 22 22 22 23 23 24 24 25 26 26 27 27 27 27 27 26 26 26 26 25 25
23 22 21 21 21 21 21 21 21 21 22 23 24 24 24 25 25 25 24 24 24 24 24 24 24 24 25 25 26 26 27 27 28 28 28 28 28 28 27 27 27 26
22 22 22 22 22 22 22 22 22 23 23 24 24 24 24 24 24 24 24 24 23 23 23 23 24 25 25 26 27 27 28 29 29 29 30 30 30 30 30 29 29 29
22 22 22 23 24 24 24 24 23 24 24 24 24 24 24 24 24 23 23 22 22 21 21 22 23 23 24 26 27 28 28 29 30 30 31 31 31 31 31 30 30 30

ECMWFNIL_700_spd_012.txt.gz
Wind_Speed
23 21 17 12 7 5 5 7 8 8 8 8 7 6 6 5 5 6 7 7 7 7 7 6 6 6 5 4 4 4 4 4 4 4 4 4 4 3 3 3 3 3
27 26 23 20 16 9 5 7 7 6 6 6 5 4 5 5 6 8 9 10 10 10 10 10 9 10 9 9 8 8 8 8 8 7 7 7 6 6 6 6 6 6
32 31 30 29 24 15 7 7 7 4 4 3 3 2 3 5 7 9 11 12 12 12 12 11 11 11 11 11 10 10 9 9 9 8 7 7 6 6 6 6 6 6
33 33 35 32 27 18 11 9 8 4 2 1 1 1 3 5 7 9 11 12 13 12 12 12 12 12 11 11 10 10 9 8 7 6 5 5 4 4 4 3 3 2
34 32 29 23 22 19 15 12 10 7 5 4 4 4 4 5 6 8 9 10 11 11 11 11 11 11 10 10 9 9 9 8 7 7 6 6 4 3 2 1 1 1
27 22 16 11 15 17 15 14 13 11 9 8 8 8 7 7 7 8 8 9 9 9 9 9 8 8 8 8 8 8 8 7 7 6 6 6 6 6 5 4 4 4
13 11 11 12 14 15 17 17 15 14 12 11 10 10 10 9 9 9 8 8 7 7 6 5 4 4 4 5 6 6 6 5 5 5 5 6 7 7 7 8 8 8
7 6 12 15 14 15 18 19 18 18 16 14 14 14 13 12 11 11 10 9 8 7 6 5 3 2 2 3 4 4 4 4 5 6 6 7 8 8 9 9 10 11
8 7 13 18 19 20 21 22 22 21 19 18 17 16 16 16 15 14 13 11 11 10 8 6 5 4 4 4 2 2 4 6 7 8 9 10 10 11 11 11 11 12
11 11 14 18 21 24 25 26 26 24 22 21 19 18 19 18 18 17 15 14 14 13 12 10 9 9 8 7 5 4 5 7 10 11 12 12 12 12 12 13 13 13
14 15 17 18 21 26 30 29 29 27 24 23 22 21 21 21 20 19 18 17 17 16 14 13 11 12 12 11 11 10 8 9 11 13 14 15 14 14 13 13 14 14
17 18 18 19 21 27 34 32 30 30 28 26 25 24 24 24 23 21 21 21 21 20 19 17 15 15 16 16 16 14 12 12 13 14 15 16 16 16 16 15 15 15
19 19 18 20 21 23 34 36 33 33 32 30 29 28 30 30 27 23 24 25 25 24 23 22 21 19 19 19 18 16 15 14 14 14 15 17 17 16 18 19 19 18
19 19 17 18 20 18 30 37 35 36 37 36 36 35 34 34 31 28 28 29 29 28 26 25 24 22 21 21 20 18 16 15 15 15 17 18 17 15 15 17 20 21
18 18 18 18 18 16 23 32 34 36 38 37 36 35 32 31 32 33 34 35 35 32 28 24 24 25 21 18 19 20 20 20 19 19 18 17 16 14 14 14 17 20
17 18 19 19 19 17 19 26 30 33 36 35 32 32 29 26 26 28 31 36 38 33 24 18 17 18 16 14 16 19 19 19 18 18 17 16 16 15 15 15 15 17
16 16 17 17 18 19 20 22 24 29 34 34 32 30 26 21 20 19 21 28 30 26 19 13 10 10 12 13 15 15 16 16 16 17 18 18 17 17 17 18 18 19
16 16 15 14 16 19 21 22 23 26 29 31 30 26 20 18 19 17 16 19 21 18 14 13 12 12 13 14 15 16 17 18 18 19 19 19 19 20 21 22 22 23
17 17 17 16 15 17 18 20 21 23 25 25 24 20 17 17 18 18 17 18 19 18 16 15 15 15 15 16 17 18 19 19 19 19 20 21 22 23 25 26 27 27
18 18 18 17 17 16 17 18 20 21 22 22 20 19 18 18 19 19 19 19 19 18 18 18 17 17 17 18 18 19 19 19 20 20 22 23 25 27 28 29 29 30
21 21 21 20 19 19 19 20 21 22 22 21 20 20 20 19 19 19 19 19 19 19 19 19 19 19 18 18 19 19 20 20 21 23 24 25 26 27 29 29 29 30
23 24 24 23 23 22 22 23 24 24 24 23 22 21 21 20 20 19 18 18 18 19 20 20 20 20 19 19 20 21 22 23 24 24 24 25 26 27 28 29 29 30
26 26 26 26 25 24 24 24 24 25 25 24 23 22 22 21 20 19 18 18 19 20 20 21 21 21 21 22 22 23 23 24 24 25 26 27 28 29 29 30 30 30
29 28 27 26 26 25 24 23 24 24 23 23 22 22 22 21 21 20 20 20 20 21 21 21 21 21 22 22 23 23 24 24 25 26 27 28 29 29 30 30 31 31
30 30 29 26 25 26 25 24 24 24 25 25 24 24 23 22 22 21 21 21 21 21 21 21 21 22 22 23 23 24 25 26 26 27 28 29 30 30 30 31 31 32
30 31 30 28 26 27 28 27 27 28 28 28 27 26 25 24 23 22 22 23 23 23 23 22 22 22 22 23 24 25 26 27 28 29 30 30 31 31 31 32 32 33

ECMWFNIL_700_spd_015.txt.gz
Wind_Speed
18 18 19 19 16 14 14 13 10 6 6 6 4 3 4 3 3 4 6 5 5 5 4 5 6 7 8 8 8 8 8 8 8 7 7 7 7 7 6 6 5 4
20 21 23 22 19 17 17 17 15 8 6 6 2 1 3 4 5 7 8 8 8 9 9 10 11 13 13 13 13 13 13 12 11 11 10 10 10 9 8 8 7 6
20 21 25 25 24 22 21 23 20 11 7 5 1 2 3 6 8 10 11 11 12 13 13 14 15 15 15 15 15 15 14 14 13 12 12 11 11 10 9 8 7 6
20 20 24 27 30 30 29 30 25 14 8 5 3 3 4 7 8 11 12 13 14 15 15 15 15 15 15 15 14 14 13 13 12 11 10 10 9 9 8 7 6 5
17 16 16 20 28 31 31 29 20 13 9 6 5 5 5 7 8 11 12 13 14 15 15 15 14 14 13 13 12 12 11 11 10 9 9 8 6 6 5 5 4 4
12 12 9 11 18 22 22 19 13 15 11 9 9 9 9 9 10 11 12 13 14 14 15 14 13 13 12 11 11 11 10 9 8 7 6 5 4 3 3 2 2 2
9 10 8 9 12 12 10 12 15 16 13 13 13 12 12 12 12 12 12 13 14 14 14 13 12 12 11 11 11 10 10 8 6 4 3 1 0 1 1 2 2 3
7 8 7 8 11 10 11 16 18 17 16 16 15 15 14 13 13 13 13 13 13 13 13 12 11 11 11 11 11 10 10 8 6 5 4 3 3 4 5 6 6 6
6 5 6 8 11 12 14 19 21 20 18 17 17 17 16 15 15 14 14 14 13 13 12 11 11 11 11 12 12 11 11 10 9 8 7 6 7 7 8 9 9 10
7 6 6 6 8 11 14 19 22 22 21 20 20 20 18 18 17 17 16 16 15 14 14 13 13 13 13 13 14 13 13 12 11 10 9 8 8 9 10 11 11 12
10 9 8 7 8 11 15 20 23 24 24 23 23 22 21 21 20 19 19 18 18 17 16 16 15 15 15 15 16 16 15 13 11 10 10 10 10 11 12 12 13 13
14 12 9 7 8 12 16 20 24 26 27 28 27 26 25 24 22 21 20 20 20 20 20 19 18 18 18 18 19 19 17 14 12 12 12 13 13 13 14 13 14 14
15 15 13 12 10 12 16 20 24 29 30 31 32 30 28 27 25 24 24 24 24 24 24 23 22 22 21 21 22 22 20 17 16 14 14 14 15 15 15 14 13 13
15 16 17 17 15 14 15 18 24 31 34 34 34 33 32 31 29 28 27 29 29 28 28 27 25 24 23 24 25 24 23 21 18 17 16 16 15 15 14 13 12 13
16 17 18 19 18 17 16 16 20 29 37 38 36 36 35 33 33 32 32 33 34 33 32 30 27 26 26 26 27 27 27 25 22 20 20 19 18 18 16 15 13 13
18 18 19 20 20 19 18 18 18 24 34 41 40 38 38 37 36 37 38 38 37 37 36 34 31 30 30 30 29 27 25 25 25 25 24 22 22 21 19 17 16 15
18 18 18 19 20 19 19 20 21 21 27 37 43 41 40 41 40 41 43 42 39 36 34 35 35 34 34 33 29 24 21 22 24 24 23 22 21 20 18 18 18 17
17 17 18 19 20 19 17 17 20 21 22 29 40 45 45 44 42 41 40 37 31 27 28 31 34 33 31 29 24 21 20 21 21 21 20 20 19 19 19 19 19 18
15 17 18 19 19 19 17 16 17 21 22 24 33 40 42 41 39 34 28 24 22 22 24 27 27 25 24 24 22 21 19 18 18 19 20 20 21 21 20 20 19 19
15 16 18 20 19 19 18 17 17 19 22 24 27 31 32 31 28 24 20 19 20 21 23 23 22 21 23 24 22 21 19 18 19 20 21 21 22 21 21 21 21 21
16 16 18 20 21 21 20 20 20 21 22 24 26 27 25 23 22 21 19 20 21 21 22 22 22 22 24 23 22 22 21 20 21 21 21 22 22 21 21 22 23 23
17 17 18 19 21 22 22 23 24 23 23 23 23 22 21 20 21 21 21 22 24 24 23 23 22 23 23 23 23 23 23 22 22 22 22 22 21 22 22 23 24 25
17 18 19 20 21 22 23 25 26 26 25 25 24 22 22 23 24 24 24 25 26 24 24 24 24 24 24 25 25 24 23 23 22 22 22 21 22 22 23 24 25 26
19 20 21 22 22 23 24 26 29 30 28 28 28 27 24 22 22 23 23 24 24 23 24 26 26 25 26 26 26 25 24 24 23 23 22 22 23 23 24 25 26 27
21 22 22 21 21 22 23 26 29 32 32 31 30 27 24 21 21 21 22 23 24 24 26 27 26 26 27 26 26 26 25 24 24 23 23 23 23 24 25 26 27 28
24 24 23 22 21 22 23 26 29 32 33 32 28 25 24 23 23 22 23 23 25 26 27 27 27 27 27 27 27 26 25 24 24 23 24 24 25 26 27 28 30 31